Trenton, NJ

12:07 AM EST on December 10, 2019 (GMT -0500)
Trenton Mercer

Weather History for KTTN - October, 2019

Change the Weather History Date:

Thursday, October 24, 2019

  Actual Average Record
Temperature  
Mean Temperature 53 °F 52 °F  
Max Temperature 68 °F 62 °F 82 °F (2001)
Min Temperature 38 °F 42 °F 29 °F (1969)
Degree Days  
Heating Degree Days 12 13  
Month to date heating degree days 190 233  
Since 1 July heating degree days 208 298  
Cooling Degree Days 0 0  
Month to date cooling degree days 26 7  
Year to date cooling degree days 1163 962  
Growing Degree Days 3 (Base 50)    
Moisture  
Dew Point 37 °F    
Average Humidity 58    
Maximum Humidity 93    
Minimum Humidity 28    
Precipitation  
Precipitation 0.00 in 0.15 in 1.81 in (1971)
Month to date precipitation 3.20 3.30  
Year to date precipitation 41.86 38.55  
Sea Level Pressure  
Sea Level Pressure 30.27 in    
Wind  
Wind Speed 4 mph ()    
Max Wind Speed 14 mph    
Max Gust Speed 17 mph    
Visibility 10.0 miles    
Events      
T = Trace of Precipitation, MM = Missing Value Source: Averaged Metar Reports

Daily Weather History Graph

Daily Weather History Graph

Search for Another Location

Airport or City:

Astronomy

Oct. 24, 2019 Rise Set
Actual Time 7:19 AM EDT 6:06 PM EDT
Civil Twilight 6:51 AM EDT 6:34 PM EDT
Nautical Twilight 6:19 AM EDT 7:06 PM EDT
Astronomical Twilight 5:48 AM EDT 7:37 PM EDT
Moon 2:45 AM EDT (10/24) 4:33 PM EDT (10/24)
Length of Visible Light 11h 42m
Length of Day
10h 47m
Waning Crescent, 17% of the Moon is Illuminated
Oct 24
Waning Crescent
Oct 27
New
Nov 4
First Quarter
Nov 12
Full
Nov 19
Last Quarter

Hourly Weather History & Observations

Time (EDT) Temp. Windchill Dew Point Humidity Pressure Visibility Wind Dir Wind Speed Gust Speed Precip Events Conditions
12:53 AM 48.0 °F - 37.0 °F 66% 30.19 in 10.0 mi WNW 4.6 mph - N/A   Clear
1:53 AM 46.0 °F 43.9 °F 36.0 °F 68% 30.20 in 10.0 mi NW 4.6 mph - N/A   Clear
2:53 AM 48.0 °F - 34.0 °F 58% 30.22 in 10.0 mi WNW 3.5 mph - N/A   Clear
3:53 AM 42.1 °F 40.2 °F 35.1 °F 76% 30.21 in 10.0 mi NNW 3.5 mph - N/A   Clear
4:53 AM 43.0 °F - 35.1 °F 74% 30.25 in 10.0 mi Calm Calm - N/A   Clear
5:53 AM 39.9 °F - 35.1 °F 83% 30.27 in 10.0 mi Calm Calm - N/A   Clear
6:53 AM 39.0 °F - 35.1 °F 86% 30.28 in 10.0 mi Calm Calm - N/A   Clear
7:53 AM 39.9 °F - 37.9 °F 93% 30.30 in 10.0 mi Calm Calm - N/A   Clear
8:53 AM 46.9 °F - 41.0 °F 80% 30.32 in 10.0 mi SSW 3.5 mph - N/A   Clear
9:53 AM 52.0 °F - 41.0 °F 66% 30.32 in 10.0 mi SSW 4.6 mph - N/A   Clear
10:53 AM 59.0 °F - 39.9 °F 49% 30.32 in 10.0 mi SSW 3.5 mph - N/A   Clear
11:53 AM 63.0 °F - 37.9 °F 40% 30.32 in 10.0 mi South 4.6 mph - N/A   Clear
12:53 PM 64.9 °F - 37.0 °F 36% 30.29 in 10.0 mi South 8.1 mph - N/A   Clear
1:53 PM 66.0 °F - 36.0 °F 33% 30.26 in 10.0 mi South 9.2 mph - N/A   Clear
2:53 PM 66.9 °F - 33.1 °F 28% 30.26 in 10.0 mi WSW 9.2 mph - N/A   Clear
3:53 PM 66.9 °F - 34.0 °F 30% 30.26 in 10.0 mi WSW 10.4 mph - N/A   Clear
4:53 PM 64.9 °F - 34.0 °F 32% 30.26 in 10.0 mi SSW 11.5 mph - N/A   Clear
5:53 PM 61.0 °F - 36.0 °F 39% 30.26 in 10.0 mi SW 4.6 mph - N/A   Clear
6:53 PM 60.1 °F - 36.0 °F 41% 30.26 in 10.0 mi SSW 3.5 mph - N/A   Clear
7:53 PM 57.9 °F - 36.0 °F 44% 30.28 in 10.0 mi Variable 3.5 mph - N/A   Clear
8:53 PM 51.1 °F - 37.9 °F 61% 30.28 in 10.0 mi South 5.8 mph - N/A   Clear
9:53 PM 51.1 °F - 41.0 °F 68% 30.28 in 10.0 mi South 6.9 mph - N/A   Clear
10:53 PM 51.1 °F - 41.0 °F 68% 30.30 in 10.0 mi SSW 3.5 mph - N/A   Clear
11:53 PM 48.9 °F - 39.9 °F 71% 30.30 in 10.0 mi Calm Calm - N/A   Clear